CST,Max TemperatureF,Mean TemperatureF,Min TemperatureF,Max Dew PointF,MeanDew PointF,Min DewpointF,Max Humidity, Mean Humidity, Min Humidity, Max Sea Level PressureIn, Mean Sea Level PressureIn, Min Sea Level PressureIn, Max VisibilityMiles, Mean VisibilityMiles, Min VisibilityMiles, Max Wind SpeedMPH, Mean Wind SpeedMPH, Max Gust SpeedMPH,PrecipitationIn, CloudCover, Events, WindDirDegrees
2013-1-1,66,58,48,64,54,45,100,95,82,30.19,30.04,29.91,10,7,2,18,10,22,2.86,8,Rain-Thunderstorm,347
2013-1-2,48,45,42,45,43,41,100,92,81,30.29,30.22,30.15,10,10,5,16,9,20,0.03,8,Rain,348
2013-1-3,55,48,41,41,37,32,93,72,44,30.42,30.35,30.28,10,10,7,16,9,20,0.00,5,,355
2013-1-4,48,45,42,37,35,34,76,65,58,30.51,30.41,30.35,10,10,10,13,8,18,0.00,8,Rain,21
2013-1-5,46,44,42,45,43,36,100,92,66,30.37,30.31,30.25,10,8,2,12,6,,1.02,8,Rain,3
2013-1-6,59,52,44,45,44,41,100,83,55,30.32,30.28,30.24,10,9,3,16,9,21,0.00,3,Rain,357
2013-1-7,59,50,41,45,42,37,93,76,55,30.34,30.25,30.13,10,10,10,10,6,,0.00,3,,49
2013-1-8,62,56,51,63,55,45,100,92,72,30.13,30.06,29.98,10,10,5,17,9,25,0.20,7,Rain-Thunderstorm,79
2013-1-9,68,64,60,68,64,61,100,98,94,30.12,30.03,29.94,10,8,1,18,9,29,2.32,6,Rain-Thunderstorm,88
2013-1-10,64,58,51,64,61,52,100,98,88,30.11,30.04,29.96,10,7,0,13,4,16,0.72,6,Fog-Rain-Thunderstorm,186
2013-1-11,71,58,44,68,56,45,100,87,53,30.08,30.01,29.94,10,6,0,9,2,,0.01,5,Fog-Rain,115
2013-1-12,75,72,68,72,70,68,100,96,83,29.98,29.90,29.79,7,5,1,23,12,29,0.01,7,Rain,147
2013-1-13,71,58,46,70,53,45,100,95,87,30.12,29.97,29.75,10,9,4,26,14,37,0.11,7,Rain-Thunderstorm,332
2013-1-14,46,42,39,45,40,37,100,90,81,30.20,30.13,30.05,10,9,2,17,12,26,0.00,8,Rain,6
2013-1-15,42,38,35,39,37,36,100,94,81,30.12,30.07,30.02,10,8,2,15,9,22,0.31,8,Rain,355
2013-1-16,46,40,33,37,36,32,100,92,71,30.26,30.19,30.10,10,10,4,14,9,21,0.01,5,Rain,330
2013-1-17,59,46,32,36,32,30,100,71,36,30.47,30.36,30.26,10,10,10,14,4,20,0.00,0,,311
2013-1-18,60,46,33,37,34,23,100,71,23,30.56,30.47,30.40,10,10,10,10,3,,0.00,0,,65
2013-1-19,62,47,32,46,42,32,100,85,52,30.39,30.31,30.23,10,7,0,7,1,,0.00,0,Fog,168
2013-1-20,69,53,37,54,45,37,100,84,40,30.30,30.22,30.15,10,6,0,8,1,,0.00,1,Fog,173
2013-1-21,69,54,39,54,46,39,100,82,40,30.25,30.20,30.17,10,7,0,7,1,,0.00,0,Fog,58
2013-1-22,66,54,42,52,45,39,100,78,46,30.36,30.30,30.24,10,9,0,9,5,,0.00,0,Fog,75
2013-1-23,69,55,41,59,52,41,100,87,60,30.39,30.32,30.28,10,7,0,15,4,18,0.00,3,Fog,157
2013-1-24,71,61,51,63,59,52,100,91,73,30.34,30.26,30.21,10,7,0,14,5,16,0.00,6,Fog,166
2013-1-25,77,65,53,64,60,54,100,89,61,30.23,30.18,30.13,10,7,0,18,7,24,0.00,3,Fog,175
2013-1-26,77,65,53,68,60,54,100,88,57,30.24,30.19,30.16,10,6,0,13,3,18,0.00,4,Fog,150
2013-1-27,75,66,57,64,61,57,100,85,65,30.21,30.16,30.13,10,10,5,20,8,26,0.00,4,,127
2013-1-28,73,70,66,68,66,64,100,90,78,30.19,30.12,30.06,10,9,3,15,10,22,0.00,7,,132
2013-1-29,77,72,68,70,69,68,100,94,78,30.05,29.86,29.70,10,7,2,25,15,34,0.00,8,,152
2013-1-30,71,55,37,70,40,28,94,61,34,30.24,29.95,29.72,10,10,5,33,12,43,0.09,4,Rain-Thunderstorm,285
2013-1-31,62,48,33,43,35,27,100,66,27,30.34,30.28,30.23,10,10,10,16,4,21,0.00,0,,197